﻿測定場所 (Monitoring sites),日付 (Measurement date),時間 (Measurement time),線量率 最大値 (max) μGy/h,線量率 最小値 (min) μGy/h,線量率 平均値 (average) μGy/h,
新宿 (Shinjuku),2021-08-22,23:01～24:00,0.0393,0.0343,0.0364,
新宿 (Shinjuku),2021-08-22,22:01～23:00,0.0405,0.0333,0.0360,
新宿 (Shinjuku),2021-08-22,21:01～22:00,0.0384,0.0341,0.0361,
新宿 (Shinjuku),2021-08-22,20:01～21:00,0.0371,0.0340,0.0359,
新宿 (Shinjuku),2021-08-22,19:01～20:00,0.0390,0.0331,0.0360,
新宿 (Shinjuku),2021-08-22,18:01～19:00,0.0378,0.0336,0.0359,
新宿 (Shinjuku),2021-08-22,17:01～18:00,0.0389,0.0340,0.0360,
新宿 (Shinjuku),2021-08-22,16:01～17:00,0.0388,0.0337,0.0358,
新宿 (Shinjuku),2021-08-22,15:01～16:00,0.0385,0.0342,0.0359,
新宿 (Shinjuku),2021-08-22,14:01～15:00,0.0386,0.0329,0.0358,
新宿 (Shinjuku),2021-08-22,13:01～14:00,0.0386,0.0335,0.0358,
新宿 (Shinjuku),2021-08-22,12:01～13:00,0.0376,0.0340,0.0356,
新宿 (Shinjuku),2021-08-22,11:01～12:00,0.0403,0.0339,0.0358,
新宿 (Shinjuku),2021-08-22,10:01～11:00,0.0378,0.0343,0.0359,
新宿 (Shinjuku),2021-08-22,09:01～10:00,0.0373,0.0343,0.0359,
新宿 (Shinjuku),2021-08-22,08:01～09:00,0.0382,0.0332,0.0357,
新宿 (Shinjuku),2021-08-22,07:01～08:00,0.0382,0.0339,0.0358,
新宿 (Shinjuku),2021-08-22,06:01～07:00,0.0389,0.0323,0.0360,
新宿 (Shinjuku),2021-08-22,05:01～06:00,0.0373,0.0336,0.0358,
新宿 (Shinjuku),2021-08-22,04:01～05:00,0.0381,0.0340,0.0360,
新宿 (Shinjuku),2021-08-22,03:01～04:00,0.0390,0.0335,0.0360,
新宿 (Shinjuku),2021-08-22,02:01～03:00,0.0401,0.0340,0.0361,
新宿 (Shinjuku),2021-08-22,01:01～02:00,0.0379,0.0329,0.0358,
新宿 (Shinjuku),2021-08-22,00:01～01:00,0.0389,0.0337,0.0358,
新宿 (Shinjuku),2021-08-21,23:01～24:00,0.0400,0.0335,0.0360,
新宿 (Shinjuku),2021-08-21,22:01～23:00,0.0400,0.0343,0.0363,
新宿 (Shinjuku),2021-08-21,21:01～22:00,0.0389,0.0334,0.0359,
新宿 (Shinjuku),2021-08-21,20:01～21:00,0.0382,0.0336,0.0357,
新宿 (Shinjuku),2021-08-21,19:01～20:00,0.0395,0.0330,0.0358,
新宿 (Shinjuku),2021-08-21,18:01～19:00,0.0382,0.0335,0.0357,
新宿 (Shinjuku),2021-08-21,17:01～18:00,0.0388,0.0343,0.0361,
新宿 (Shinjuku),2021-08-21,16:01～17:00,0.0375,0.0328,0.0357,
新宿 (Shinjuku),2021-08-21,15:01～16:00,0.0383,0.0337,0.0360,
新宿 (Shinjuku),2021-08-21,14:01～15:00,0.0382,0.0343,0.0359,
新宿 (Shinjuku),2021-08-21,13:01～14:00,0.0386,0.0335,0.0358,
新宿 (Shinjuku),2021-08-21,12:01～13:00,0.0389,0.0335,0.0363,
新宿 (Shinjuku),2021-08-21,11:01～12:00,0.0386,0.0338,0.0359,
新宿 (Shinjuku),2021-08-21,10:01～11:00,0.0400,0.0339,0.0362,
新宿 (Shinjuku),2021-08-21,09:01～10:00,0.0385,0.0336,0.0364,
新宿 (Shinjuku),2021-08-21,08:01～09:00,0.0392,0.0340,0.0360,
新宿 (Shinjuku),2021-08-21,07:01～08:00,0.0375,0.0339,0.0357,
新宿 (Shinjuku),2021-08-21,06:01～07:00,0.0397,0.0344,0.0360,
新宿 (Shinjuku),2021-08-21,05:01～06:00,0.0379,0.0335,0.0358,
新宿 (Shinjuku),2021-08-21,04:01～05:00,0.0387,0.0339,0.0358,
新宿 (Shinjuku),2021-08-21,03:01～04:00,0.0391,0.0322,0.0355,
新宿 (Shinjuku),2021-08-21,02:01～03:00,0.0379,0.0341,0.0359,
新宿 (Shinjuku),2021-08-21,01:01～02:00,0.0388,0.0332,0.0359,
新宿 (Shinjuku),2021-08-21,00:01～01:00,0.0371,0.0341,0.0357,
新宿 (Shinjuku),2021-08-20,23:01～24:00,0.0386,0.0334,0.0360,
新宿 (Shinjuku),2021-08-20,22:01～23:00,0.0374,0.0341,0.0358,
新宿 (Shinjuku),2021-08-20,21:01～22:00,0.0408,0.0340,0.0360,
新宿 (Shinjuku),2021-08-20,20:01～21:00,0.0389,0.0330,0.0356,
新宿 (Shinjuku),2021-08-20,19:01～20:00,0.0406,0.0334,0.0358,
新宿 (Shinjuku),2021-08-20,18:01～19:00,0.0382,0.0332,0.0357,
新宿 (Shinjuku),2021-08-20,17:01～18:00,0.0385,0.0332,0.0359,
新宿 (Shinjuku),2021-08-20,16:01～17:00,0.0392,0.0319,0.0358,
新宿 (Shinjuku),2021-08-20,15:01～16:00,0.0382,0.0329,0.0356,
新宿 (Shinjuku),2021-08-20,14:01～15:00,0.0385,0.0332,0.0356,
新宿 (Shinjuku),2021-08-20,13:01～14:00,0.0384,0.0332,0.0358,
新宿 (Shinjuku),2021-08-20,12:01～13:00,0.0378,0.0336,0.0357,
新宿 (Shinjuku),2021-08-20,11:01～12:00,0.0394,0.0341,0.0357,
新宿 (Shinjuku),2021-08-20,10:01～11:00,0.0378,0.0335,0.0355,
新宿 (Shinjuku),2021-08-20,09:01～10:00,0.0373,0.0332,0.0356,
新宿 (Shinjuku),2021-08-20,08:01～09:00,0.0378,0.0331,0.0354,
新宿 (Shinjuku),2021-08-20,07:01～08:00,0.0384,0.0331,0.0355,
新宿 (Shinjuku),2021-08-20,06:01～07:00,0.0396,0.0328,0.0359,
新宿 (Shinjuku),2021-08-20,05:01～06:00,0.0376,0.0338,0.0355,
新宿 (Shinjuku),2021-08-20,04:01～05:00,0.0375,0.0337,0.0356,
新宿 (Shinjuku),2021-08-20,03:01～04:00,0.0387,0.0337,0.0360,
新宿 (Shinjuku),2021-08-20,02:01～03:00,0.0379,0.0333,0.0357,
新宿 (Shinjuku),2021-08-20,01:01～02:00,0.0370,0.0330,0.0354,
新宿 (Shinjuku),2021-08-20,00:01～01:00,0.0379,0.0336,0.0358,
新宿 (Shinjuku),2021-08-19,23:01～24:00,0.0392,0.0337,0.0357,
新宿 (Shinjuku),2021-08-19,22:01～23:00,0.0373,0.0334,0.0356,
新宿 (Shinjuku),2021-08-19,21:01～22:00,0.0387,0.0329,0.0354,
新宿 (Shinjuku),2021-08-19,20:01～21:00,0.0371,0.0339,0.0355,
新宿 (Shinjuku),2021-08-19,19:01～20:00,0.0391,0.0332,0.0358,
新宿 (Shinjuku),2021-08-19,18:01～19:00,0.0397,0.0338,0.0356,
新宿 (Shinjuku),2021-08-19,17:01～18:00,0.0381,0.0336,0.0356,
新宿 (Shinjuku),2021-08-19,16:01～17:00,0.0381,0.0339,0.0357,
新宿 (Shinjuku),2021-08-19,15:01～16:00,0.0371,0.0331,0.0354,
新宿 (Shinjuku),2021-08-19,14:01～15:00,0.0379,0.0334,0.0354,
新宿 (Shinjuku),2021-08-19,13:01～14:00,0.0378,0.0335,0.0357,
新宿 (Shinjuku),2021-08-19,12:01～13:00,0.0377,0.0339,0.0356,
新宿 (Shinjuku),2021-08-19,11:01～12:00,0.0395,0.0337,0.0357,
新宿 (Shinjuku),2021-08-19,10:01～11:00,0.0374,0.0335,0.0355,
新宿 (Shinjuku),2021-08-19,09:01～10:00,0.0381,0.0336,0.0354,
新宿 (Shinjuku),2021-08-19,08:01～09:00,0.0372,0.0324,0.0352,
新宿 (Shinjuku),2021-08-19,07:01～08:00,0.0393,0.0332,0.0353,
新宿 (Shinjuku),2021-08-19,06:01～07:00,0.0370,0.0321,0.0353,
新宿 (Shinjuku),2021-08-19,05:01～06:00,0.0373,0.0334,0.0355,
新宿 (Shinjuku),2021-08-19,04:01～05:00,0.0368,0.0336,0.0354,
新宿 (Shinjuku),2021-08-19,03:01～04:00,0.0372,0.0327,0.0351,
新宿 (Shinjuku),2021-08-19,02:01～03:00,0.0379,0.0341,0.0355,
新宿 (Shinjuku),2021-08-19,01:01～02:00,0.0379,0.0334,0.0356,
新宿 (Shinjuku),2021-08-19,00:01～01:00,0.0369,0.0338,0.0356,
新宿 (Shinjuku),2021-08-18,23:01～24:00,0.0385,0.0337,0.0353,
新宿 (Shinjuku),2021-08-18,22:01～23:00,0.0381,0.0334,0.0352,
新宿 (Shinjuku),2021-08-18,21:01～22:00,0.0370,0.0332,0.0354,
新宿 (Shinjuku),2021-08-18,20:01～21:00,0.0380,0.0337,0.0355,
新宿 (Shinjuku),2021-08-18,19:01～20:00,0.0379,0.0326,0.0353,
新宿 (Shinjuku),2021-08-18,18:01～19:00,0.0375,0.0340,0.0355,
新宿 (Shinjuku),2021-08-18,17:01～18:00,0.0384,0.0338,0.0355,
新宿 (Shinjuku),2021-08-18,16:01～17:00,0.0380,0.0333,0.0355,
新宿 (Shinjuku),2021-08-18,15:01～16:00,0.0373,0.0335,0.0354,
新宿 (Shinjuku),2021-08-18,14:01～15:00,0.0380,0.0332,0.0355,
新宿 (Shinjuku),2021-08-18,13:01～14:00,0.0371,0.0320,0.0353,
新宿 (Shinjuku),2021-08-18,12:01～13:00,0.0388,0.0332,0.0354,
新宿 (Shinjuku),2021-08-18,11:01～12:00,0.0378,0.0329,0.0353,
新宿 (Shinjuku),2021-08-18,10:01～11:00,0.0373,0.0328,0.0353,
新宿 (Shinjuku),2021-08-18,09:01～10:00,0.0381,0.0335,0.0356,
新宿 (Shinjuku),2021-08-18,08:01～09:00,0.0378,0.0338,0.0355,
新宿 (Shinjuku),2021-08-18,07:01～08:00,0.0370,0.0334,0.0350,
新宿 (Shinjuku),2021-08-18,06:01～07:00,0.0375,0.0328,0.0353,
新宿 (Shinjuku),2021-08-18,05:01～06:00,0.0373,0.0334,0.0354,
新宿 (Shinjuku),2021-08-18,04:01～05:00,0.0374,0.0323,0.0353,
新宿 (Shinjuku),2021-08-18,03:01～04:00,0.0379,0.0332,0.0353,
新宿 (Shinjuku),2021-08-18,02:01～03:00,0.0375,0.0337,0.0354,
新宿 (Shinjuku),2021-08-18,01:01～02:00,0.0381,0.0336,0.0354,
新宿 (Shinjuku),2021-08-18,00:01～01:00,0.0371,0.0330,0.0352,
新宿 (Shinjuku),2021-08-17,23:01～24:00,0.0393,0.0333,0.0352,
新宿 (Shinjuku),2021-08-17,22:01～23:00,0.0378,0.0328,0.0353,
新宿 (Shinjuku),2021-08-17,21:01～22:00,0.0374,0.0328,0.0353,
新宿 (Shinjuku),2021-08-17,20:01～21:00,0.0393,0.0334,0.0356,
新宿 (Shinjuku),2021-08-17,19:01～20:00,0.0382,0.0338,0.0356,
新宿 (Shinjuku),2021-08-17,18:01～19:00,0.0377,0.0337,0.0356,
新宿 (Shinjuku),2021-08-17,17:01～18:00,0.0385,0.0332,0.0354,
新宿 (Shinjuku),2021-08-17,16:01～17:00,0.0400,0.0340,0.0357,
新宿 (Shinjuku),2021-08-17,15:01～16:00,0.0380,0.0336,0.0357,
新宿 (Shinjuku),2021-08-17,14:01～15:00,0.0402,0.0335,0.0360,
新宿 (Shinjuku),2021-08-17,13:01～14:00,0.0400,0.0336,0.0362,
新宿 (Shinjuku),2021-08-17,12:01～13:00,0.0386,0.0335,0.0358,
新宿 (Shinjuku),2021-08-17,11:01～12:00,0.0396,0.0346,0.0363,
新宿 (Shinjuku),2021-08-17,10:01～11:00,0.0402,0.0339,0.0361,
新宿 (Shinjuku),2021-08-17,09:01～10:00,0.0384,0.0337,0.0360,
新宿 (Shinjuku),2021-08-17,08:01～09:00,0.0385,0.0325,0.0357,
新宿 (Shinjuku),2021-08-17,07:01～08:00,0.0371,0.0334,0.0356,
新宿 (Shinjuku),2021-08-17,06:01～07:00,0.0377,0.0335,0.0355,
新宿 (Shinjuku),2021-08-17,05:01～06:00,0.0380,0.0339,0.0360,
新宿 (Shinjuku),2021-08-17,04:01～05:00,0.0376,0.0342,0.0359,
新宿 (Shinjuku),2021-08-17,03:01～04:00,0.0394,0.0347,0.0366,
新宿 (Shinjuku),2021-08-17,02:01～03:00,0.0391,0.0335,0.0360,
新宿 (Shinjuku),2021-08-17,01:01～02:00,0.0399,0.0337,0.0357,
新宿 (Shinjuku),2021-08-17,00:01～01:00,0.0382,0.0338,0.0356,
新宿 (Shinjuku),2021-08-16,23:01～24:00,0.0374,0.0325,0.0354,
新宿 (Shinjuku),2021-08-16,22:01～23:00,0.0377,0.0337,0.0358,
新宿 (Shinjuku),2021-08-16,21:01～22:00,0.0383,0.0335,0.0356,
新宿 (Shinjuku),2021-08-16,20:01～21:00,0.0382,0.0333,0.0357,
新宿 (Shinjuku),2021-08-16,19:01～20:00,0.0386,0.0337,0.0357,
新宿 (Shinjuku),2021-08-16,18:01～19:00,0.0387,0.0336,0.0361,
新宿 (Shinjuku),2021-08-16,17:01～18:00,0.0387,0.0345,0.0362,
新宿 (Shinjuku),2021-08-16,16:01～17:00,0.0389,0.0341,0.0366,
新宿 (Shinjuku),2021-08-16,15:01～16:00,0.0425,0.0357,0.0383,
新宿 (Shinjuku),2021-08-16,14:01～15:00,0.0421,0.0357,0.0379,
新宿 (Shinjuku),2021-08-16,13:01～14:00,0.0401,0.0344,0.0366,
新宿 (Shinjuku),2021-08-16,12:01～13:00,0.0378,0.0344,0.0361,
新宿 (Shinjuku),2021-08-16,11:01～12:00,0.0388,0.0344,0.0361,
新宿 (Shinjuku),2021-08-16,10:01～11:00,0.0377,0.0334,0.0359,
新宿 (Shinjuku),2021-08-16,09:01～10:00,0.0387,0.0343,0.0362,
新宿 (Shinjuku),2021-08-16,08:01～09:00,0.0402,0.0340,0.0362,
新宿 (Shinjuku),2021-08-16,07:01～08:00,0.0397,0.0338,0.0359,
新宿 (Shinjuku),2021-08-16,06:01～07:00,0.0395,0.0346,0.0365,
新宿 (Shinjuku),2021-08-16,05:01～06:00,0.0401,0.0337,0.0363,
新宿 (Shinjuku),2021-08-16,04:01～05:00,0.0388,0.0342,0.0359,
新宿 (Shinjuku),2021-08-16,03:01～04:00,0.0394,0.0346,0.0365,
新宿 (Shinjuku),2021-08-16,02:01～03:00,0.0413,0.0354,0.0372,
新宿 (Shinjuku),2021-08-16,01:01～02:00,0.0420,0.0360,0.0385,
新宿 (Shinjuku),2021-08-16,00:01～01:00,0.0390,0.0336,0.0361,
